Flag for Western Sahara Weather past 2 weeks in El Aaiún, Western Sahara

Now
59 °F

Passing clouds.


Feels Like: 56 °F
Forecast: 58 / 82 °F
Wind: 15 mph from Northeast

Location: Laayoune/Hassan Isl

Current Time: Mar 3, 2015 at 4:14:33 AM

Latest Report: Mar 3, 2015 at 3:00 AM


Visibility: 4 mi

Pressure: 30.21 "Hg

Humidity: 88%

Dew point: 55 °F

Location of El AaiúnLocation

Historic Weather in El Aaiún — Graph

°F

El Aaiún temperature yesterday

Maximum temperature yesterday: 82 °F (at 4:00 PM)
Minimum temperature yesterday: 61 °F (at 12:00 AM)
Average temperature yesterday: 66 °F

Past Weeks' High & Low Weather Summary

 TemperatureHumidityPressure
High82 °F (Mar 2, 4:00 PM)94% (Feb 16, 7:00 AM)30.33 "Hg (Feb 16, 7:00 AM)
Low54 °F (Feb 16, 5:00 AM)28% (Mar 2, 4:00 PM)30.01 "Hg (Feb 18, 3:00 PM)
Average62 °F68%30.17 "Hg
* Reported Feb 16 3:00 AM — Mar 3 3:00 AM, El Aaiún, Weather by CustomWeather, © 2015

Note: Actual official high and low records may vary slightly from our data, if they occured in-between our weather recording intervals... More about our weather records

Advertising

El Aaiún weather history for previous 24 hours

 ConditionsComfort  
Time TempWeatherWind HumidityBarometerVisibility
3:00 AM
Tue, Mar 3
59 °FPassing clouds.15 mph88%30.21 "Hg4 mi
2:00 AM59 °FPassing clouds.16 mph88%30.21 "Hg4 mi
1:00 AM59 °FPassing clouds.16 mph88%30.21 "Hg5 mi
12:00 AM59 °FPassing clouds.18 mph88%30.21 "Hg5 mi
11:00 PM
Mon, Mar 2
61 °FPassing clouds.15 mph83%30.21 "Hg5 mi
10:00 PM63 °FPassing clouds.14 mph77%30.21 "Hg5 mi
9:00 PM63 °FPassing clouds.14 mph77%30.18 "Hg5 mi
8:00 PM64 °FClear.15 mph68%30.18 "Hg5 mi
7:00 PM68 °FClear.13 mph64%30.15 "Hg5 mi
6:00 PM73 °FSunny.12 mph53%30.12 "Hg10 mi
5:00 PM77 °FSunny.14 mph47%30.12 "Hg10 mi
4:00 PM82 °FSunny.1 mph28%30.15 "Hg10 mi
3:00 PM79 °FSunny.5 mph34%30.15 "Hg10 mi
2:00 PM75 °FSunny.7 mph44%30.18 "Hg10 mi
1:00 PM72 °FSunny.7 mph53%30.21 "Hg10 mi
12:00 PM68 °FSunny.9 mph60%30.24 "Hg10 mi
11:00 AM64 °FPassing clouds.10 mph68%30.27 "HgN/A
10:00 AM63 °FScattered clouds.10 mph73%30.27 "Hg5 mi
9:00 AM61 °FOvercast.10 mph77%30.24 "Hg4 mi
8:00 AM61 °FPassing clouds.13 mph77%30.24 "Hg4 mi
7:00 AM61 °FOvercast.15 mph77%30.21 "Hg4 mi
6:00 AM61 °FOvercast.15 mph77%30.21 "Hg5 mi
5:00 AM61 °FOvercast.14 mph77%30.18 "Hg5 mi
4:00 AM61 °FOvercast.15 mph77%30.21 "Hg5 mi
Weather by CustomWeather, © 2015

See weather overviewHow to use our weather pages